Location: Boussy-Saint-Antoine
(48.6830°N, 2.5330°E)
Time: 11:07:38
(UTC+02:00)

KKS-1 - Pass Details

Date: 21 July 2019
Orbit: 637 x 650 km, 98.3° (Epoch: 25 August)

Event Time Altitude Azimuth Distance (km) Brightness Sun altitude
Rises 22:33:47 0° 1° (N) 2,952 ? -7.5°
Reaches altitude 10° 22:36:33 10° 343° (NNW) 2,038 ? -7.8°
Maximum altitude 22:39:34 18° 300° (WNW) 1,554 ? -8.2°
Drops below altitude 10° 22:42:35 10° 257° (WSW) 2,030 ? -8.6°
Sets 22:45:20 0° 239° (WSW) 2,935 ? -8.9°
